2016-11-11 00:07:07 r, 18.19m,0000000004Hz,0000098018c,0000000.213s, 019.0C,00002195
2016-11-11 00:17:07 r, 18.20m,0000000005Hz,0000098983c,0000000.215s, 019.0C,00002195
2016-11-11 00:27:07 r, 18.23m,0000000004Hz,0000101411c,0000000.220s, 019.0C,00002195
2016-11-11 00:37:09 r, 18.24m,0000000004Hz,0000102690c,0000000.223s, 018.6C,00002195
2016-11-11 00:47:07 r, 18.25m,0000000004Hz,0000103669c,0000000.225s, 018.6C,00002195
2016-11-11 00:57:07 r, 18.26m,0000000004Hz,0000105465c,0000000.229s, 018.6C,00002195
2016-11-11 01:07:07 r, 18.28m,0000000004Hz,0000106694c,0000000.232s, 018.6C,00002195
2016-11-11 01:17:07 r, 18.31m,0000000004Hz,0000110379c,0000000.240s, 018.6C,00002195
2016-11-11 01:27:07 r, 18.00m,0000000005Hz,0000082651c,0000000.179s, 018.6C,00002195
2016-11-11 01:37:07 r, 17.06m,0000000013Hz,0000034693c,0000000.075s, 018.6C,00002195
2016-11-11 01:47:07 r, 17.41m,0000000010Hz,0000048047c,0000000.104s, 018.6C,00002195
2016-11-11 01:57:07 r, 17.01m,0000000014Hz,0000033362c,0000000.072s, 019.0C,00002195
2016-11-11 02:07:08 r, 16.73m,0000000018Hz,0000025614c,0000000.056s, 019.3C,00002195
2016-11-11 02:17:07 r, 16.54m,0000000021Hz,0000021617c,0000000.047s, 019.6C,00002195
2016-11-11 02:27:07 r, 16.73m,0000000018Hz,0000025546c,0000000.055s, 019.9C,00002195
2016-11-11 02:37:07 r, 17.09m,0000000013Hz,0000035841c,0000000.078s, 019.9C,00002195
2016-11-11 02:47:07 r, 17.04m,0000000013Hz,0000034109c,0000000.074s, 019.9C,00002195
2016-11-11 02:57:07 r, 16.59m,0000000021Hz,0000022413c,0000000.049s, 019.6C,00002195
2016-11-11 03:07:07 r, 16.78m,0000000017Hz,0000026957c,0000000.059s, 019.3C,00002195
2016-11-11 03:17:07 r, 16.81m,0000000017Hz,0000027722c,0000000.060s, 019.3C,00002195
2016-11-11 03:27:07 r, 16.82m,0000000017Hz,0000028025c,0000000.061s, 019.0C,00002195
2016-11-11 03:37:07 r, 17.22m,0000000011Hz,0000040287c,0000000.087s, 019.0C,00002195
2016-11-11 03:47:07 r, 17.17m,0000000012Hz,0000038522c,0000000.084s, 018.6C,00002195
2016-11-11 03:57:07 r, 17.22m,0000000012Hz,0000040323c,0000000.088s, 018.6C,00002195
2016-11-11 04:07:07 r, 17.65m,0000000008Hz,0000059533c,0000000.129s, 018.6C,00002195
2016-11-11 04:17:07 r, 17.47m,0000000010Hz,0000050497c,0000000.110s, 018.6C,00002195
2016-11-11 04:27:07 r, 17.25m,0000000011Hz,0000041433c,0000000.090s, 018.6C,00002195
2016-11-11 04:37:08 r, 17.36m,0000000010Hz,0000045994c,0000000.100s, 018.6C,00002195
2016-11-11 04:47:08 r, 17.13m,0000000013Hz,0000037211c,0000000.081s, 018.6C,00002195
2016-11-11 04:57:07 r, 17.05m,0000000013Hz,0000034362c,0000000.075s, 019.0C,00002195
2016-11-11 05:07:07 r, 17.63m,0000000008Hz,0000058551c,0000000.127s, 019.0C,00002195
2016-11-11 05:17:07 r, 18.15m,0000000005Hz,0000095197c,0000000.207s, 019.0C,00002195
2016-11-11 05:27:08 r, 18.39m,0000000004Hz,0000117958c,0000000.256s, 018.6C,00002195
2016-11-11 05:37:07 r, 18.36m,0000000004Hz,0000114193c,0000000.248s, 018.6C,00002195
2016-11-11 05:47:07 r, 18.53m,0000000004Hz,0000133430c,0000000.290s, 018.0C,00002195
2016-11-11 05:57:07 r, 18.46m,0000000004Hz,0000125719c,0000000.273s, 018.0C,00002195
2016-11-11 06:07:08 r, 18.47m,0000000003Hz,0000126812c,0000000.275s, 017.7C,00002195
2016-11-11 06:17:07 r, 18.39m,0000000004Hz,0000117352c,0000000.255s, 017.7C,00002195
2016-11-11 06:27:07 r, 18.04m,0000000005Hz,0000085722c,0000000.186s, 017.4C,00002195
2016-11-11 06:37:08 r, 17.22m,0000000011Hz,0000040364c,0000000.088s, 017.4C,00002195
2016-11-11 06:47:07 r, 15.85m,0000000040Hz,0000011418c,0000000.025s, 017.4C,00002195
2016-11-11 06:57:08 r, 13.99m,0000000225Hz,0000000000c,0000000.000s, 017.0C,00002195
2016-11-11 07:07:08 r, 11.92m,0000001522Hz,0000000000c,0000000.000s, 017.0C,00002195
2016-11-11 07:17:07 r, 09.95m,0000009320Hz,0000000000c,0000000.000s, 017.0C,00002195
2016-11-11 07:27:07 r, 08.47m,0000036486Hz,0000000000c,0000000.000s, 017.0C,00002195
2016-11-11 07:37:07 r, 07.44m,0000093931Hz,0000000000c,0000000.000s, 017.0C,00002195
2016-11-11 07:47:07 r, 06.76m,0000175978Hz,0000000000c,0000000.000s, 017.0C,00002195
2016-11-11 07:57:07 r, 06.30m,0000268573Hz,0000000000c,0000000.000s, 017.0C,00002195
2016-11-11 08:07:07 r, 05.99m,0000360008Hz,0000000000c,0000000.000s, 017.0C,00002195
2016-11-11 08:17:07 r, 00.00m,0000438684Hz,0000000000c,0000000.000s, 017.0C,00002195
2016-11-11 08:27:07 r, 00.00m,0000512333Hz,0000000000c,0000000.000s, 017.0C,00002195
2016-11-11 08:37:07 r, 00.00m,0000562916Hz,0000000000c,0000000.000s, 017.0C,00002195
2016-11-11 08:47:08 r, 00.00m,0000562969Hz,0000000000c,0000000.000s, 017.7C,00002195
2016-11-11 08:57:07 r, 00.00m,0000563171Hz,0000000000c,0000000.000s, 019.0C,00002195
2016-11-11 09:07:08 r, 00.00m,0000563270Hz,0000000000c,0000000.000s, 020.3C,00002195
2016-11-11 09:17:08 r, 00.00m,0000563308Hz,0000000000c,0000000.000s, 020.9C,00002195
2016-11-11 09:27:07 r, 00.00m,0000563430Hz,0000000000c,0000000.000s, 021.9C,00002195
2016-11-11 09:37:07 r, 00.00m,0000563544Hz,0000000000c,0000000.000s, 022.5C,00002195
2016-11-11 09:47:08 r, 00.00m,0000563575Hz,0000000000c,0000000.000s, 023.2C,00002195
2016-11-11 09:57:07 r, 00.00m,0000563613Hz,0000000000c,0000000.000s, 023.5C,00002195
2016-11-11 10:07:08 r, 00.00m,0000563645Hz,0000000000c,0000000.000s, 023.5C,00002195
2016-11-11 10:17:07 r, 00.00m,0000563671Hz,0000000000c,0000000.000s, 023.8C,00002195
2016-11-11 10:27:08 r, 00.00m,0000563730Hz,0000000000c,0000000.000s, 024.4C,00002195
2016-11-11 10:37:08 r, 00.00m,0000563753Hz,0000000000c,0000000.000s, 024.8C,00002195
2016-11-11 10:47:08 r, 00.00m,0000563819Hz,0000000000c,0000000.000s, 025.1C,00002195
2016-11-11 10:57:07 r, 00.00m,0000563845Hz,0000000000c,0000000.000s, 025.1C,00002195
2016-11-11 11:07:07 r, 00.00m,0000563876Hz,0000000000c,0000000.000s, 025.4C,00002195
2016-11-11 11:17:08 r, 00.00m,0000563794Hz,0000000000c,0000000.000s, 025.7C,00002195
2016-11-11 11:27:07 r, 00.00m,0000563949Hz,0000000000c,0000000.000s, 026.1C,00002195
2016-11-11 11:37:07 r, 00.00m,0000563996Hz,0000000000c,0000000.000s, 026.4C,00002195
2016-11-11 11:47:08 r, 00.00m,0000563931Hz,0000000000c,0000000.000s, 026.1C,00002195
2016-11-11 11:57:08 r, 00.00m,0000564018Hz,0000000000c,0000000.000s, 026.4C,00002195
2016-11-11 12:07:07 r, 00.00m,0000563866Hz,0000000000c,0000000.000s, 026.4C,00002195
2016-11-11 12:17:07 r, 00.00m,0000563962Hz,0000000000c,0000000.000s, 026.1C,00002195
2016-11-11 12:27:08 r, 00.00m,0000563979Hz,0000000000c,0000000.000s, 026.1C,00002195
2016-11-11 12:37:08 r, 00.00m,0000563939Hz,0000000000c,0000000.000s, 026.1C,00002195
2016-11-11 12:47:07 r, 00.00m,0000564068Hz,0000000000c,0000000.000s, 026.4C,00002195
2016-11-11 12:57:07 r, 00.00m,0000564019Hz,0000000000c,0000000.000s, 026.7C,00002195
2016-11-11 13:07:07 r, 00.00m,0000563980Hz,0000000000c,0000000.000s, 027.0C,00002195
2016-11-11 13:17:07 r, 00.00m,0000563998Hz,0000000000c,0000000.000s, 026.7C,00002195
2016-11-11 13:27:07 r, 00.00m,0000563911Hz,0000000000c,0000000.000s, 026.7C,00002195
2016-11-11 13:37:08 r, 00.00m,0000563916Hz,0000000000c,0000000.000s, 026.7C,00002195
2016-11-11 13:47:07 r, 00.00m,0000563952Hz,0000000000c,0000000.000s, 026.7C,00002195
2016-11-11 13:57:07 r, 00.00m,0000563993Hz,0000000000c,0000000.000s, 026.7C,00002195
2016-11-11 14:07:07 r, 00.00m,0000563930Hz,0000000000c,0000000.000s, 026.7C,00002195
2016-11-11 14:17:07 r, 00.00m,0000563858Hz,0000000000c,0000000.000s, 026.4C,00002195
2016-11-11 14:27:07 r, 00.00m,0000563819Hz,0000000000c,0000000.000s, 026.4C,00002195
2016-11-11 14:37:08 r, 00.00m,0000563778Hz,0000000000c,0000000.000s, 025.4C,00002195
2016-11-11 14:47:07 r, 00.00m,0000563729Hz,0000000000c,0000000.000s, 025.1C,00002195
2016-11-11 14:57:08 r, 00.00m,0000563625Hz,0000000000c,0000000.000s, 024.1C,00002195
2016-11-11 15:07:07 r, 00.00m,0000563519Hz,0000000000c,0000000.000s, 023.8C,00002195
2016-11-11 15:17:07 r, 00.00m,0000563537Hz,0000000000c,0000000.000s, 023.5C,00002195
2016-11-11 15:27:07 r, 00.00m,0000563508Hz,0000000000c,0000000.000s, 023.2C,00002195
2016-11-11 15:37:08 r, 00.00m,0000563368Hz,0000000000c,0000000.000s, 023.2C,00002195
2016-11-11 15:47:07 r, 00.00m,0000563471Hz,0000000000c,0000000.000s, 023.2C,00002195
2016-11-11 15:57:07 r, 00.00m,0000533448Hz,0000000000c,0000000.000s, 022.8C,00002195
2016-11-11 16:07:07 r, 00.00m,0000463650Hz,0000000000c,0000000.000s, 022.8C,00002195
2016-11-11 16:17:07 r, 00.00m,0000400566Hz,0000000000c,0000000.000s, 022.8C,00002195
2016-11-11 16:27:07 r, 06.15m,0000307755Hz,0000000000c,0000000.000s, 022.5C,00002195
2016-11-11 16:37:08 r, 06.49m,0000226204Hz,0000000000c,0000000.000s, 022.2C,00002195
2016-11-11 16:47:08 r, 07.19m,0000118125Hz,0000000000c,0000000.000s, 022.2C,00002195
2016-11-11 16:57:07 r, 08.28m,0000043413Hz,0000000000c,0000000.000s, 021.9C,00002195
2016-11-11 17:07:07 r, 09.65m,0000012305Hz,0000000000c,0000000.000s, 021.9C,00002195
2016-11-11 17:17:07 r, 11.61m,0000002029Hz,0000000000c,0000000.000s, 021.5C,00002195
2016-11-11 17:27:07 r, 13.75m,0000000282Hz,0000000000c,0000000.000s, 021.2C,00002195
2016-11-11 17:37:07 r, 15.65m,0000000049Hz,0000009448c,0000000.021s, 021.2C,00002195
2016-11-11 17:47:07 r, 16.97m,0000000014Hz,0000031812c,0000000.069s, 021.2C,00002195
2016-11-11 17:57:08 r, 17.71m,0000000008Hz,0000063267c,0000000.137s, 020.9C,00002195
2016-11-11 18:07:07 r, 17.99m,0000000006Hz,0000081707c,0000000.177s, 020.9C,00002195
2016-11-11 18:17:07 r, 18.05m,0000000006Hz,0000086587c,0000000.188s, 020.9C,00002195
2016-11-11 18:27:07 r, 18.06m,0000000006Hz,0000087249c,0000000.189s, 020.9C,00002195
2016-11-11 18:37:07 r, 18.05m,0000000006Hz,0000086384c,0000000.187s, 020.9C,00002195
2016-11-11 18:47:08 r, 18.05m,0000000005Hz,0000086068c,0000000.187s, 020.6C,00002195
2016-11-11 18:57:07 r, 17.97m,0000000005Hz,0000080603c,0000000.175s, 020.6C,00002195
2016-11-11 19:07:08 r, 17.96m,0000000006Hz,0000079916c,0000000.173s, 020.6C,00002195
2016-11-11 19:17:07 r, 17.97m,0000000006Hz,0000080788c,0000000.175s, 020.3C,00002195
2016-11-11 19:27:08 r, 17.94m,0000000006Hz,0000078717c,0000000.171s, 020.3C,00002195
2016-11-11 19:37:07 r, 17.88m,0000000006Hz,0000074023c,0000000.161s, 020.3C,00002195
2016-11-11 19:47:10 r, 17.85m,0000000006Hz,0000071848c,0000000.156s, 020.3C,00002195
2016-11-11 19:57:07 r, 17.86m,0000000007Hz,0000072831c,0000000.158s, 020.3C,00002195
2016-11-11 20:07:07 r, 17.79m,0000000007Hz,0000068121c,0000000.148s, 019.9C,00002195
2016-11-11 20:17:07 r, 17.88m,0000000006Hz,0000073981c,0000000.161s, 019.9C,00002195
2016-11-11 20:27:07 r, 17.83m,0000000007Hz,0000071028c,0000000.154s, 019.9C,00002195
2016-11-11 20:37:07 r, 17.76m,0000000007Hz,0000066196c,0000000.144s, 019.9C,00002195
2016-11-11 20:47:07 r, 17.66m,0000000008Hz,0000060579c,0000000.131s, 019.9C,00002195
2016-11-11 20:57:07 r, 17.81m,0000000007Hz,0000069250c,0000000.150s, 019.9C,00002195
2016-11-11 21:07:07 r, 17.74m,0000000008Hz,0000065102c,0000000.141s, 019.9C,00002195
2016-11-11 21:17:07 r, 17.81m,0000000007Hz,0000069151c,0000000.150s, 019.9C,00002195
2016-11-11 21:27:07 r, 17.79m,0000000007Hz,0000068267c,0000000.148s, 019.9C,00002195
2016-11-11 21:37:07 r, 17.79m,0000000007Hz,0000068475c,0000000.149s, 019.9C,00002195
2016-11-11 21:47:08 r, 17.79m,0000000007Hz,0000068355c,0000000.148s, 019.9C,00002195
2016-11-11 21:57:07 r, 17.79m,0000000007Hz,0000068063c,0000000.148s, 019.9C,00002195
2016-11-11 22:07:08 r, 17.77m,0000000006Hz,0000066650c,0000000.145s, 019.9C,00002195
2016-11-11 22:17:07 r, 17.75m,0000000007Hz,0000065307c,0000000.142s, 019.9C,00002195
2016-11-11 22:27:07 r, 17.79m,0000000007Hz,0000068406c,0000000.148s, 019.9C,00002195
2016-11-11 22:37:07 r, 17.79m,0000000007Hz,0000067843c,0000000.147s, 019.9C,00002195
2016-11-11 22:47:07 r, 17.71m,0000000007Hz,0000063450c,0000000.138s, 019.9C,00002195
2016-11-11 22:57:08 r, 17.46m,0000000010Hz,0000049928c,0000000.108s, 019.9C,00002195
2016-11-11 23:07:07 r, 17.82m,0000000007Hz,0000070138c,0000000.152s, 019.9C,00002195
2016-11-11 23:17:07 r, 17.88m,0000000006Hz,0000073810c,0000000.160s, 019.9C,00002195
2016-11-11 23:27:07 r, 17.88m,0000000006Hz,0000073936c,0000000.160s, 019.9C,00002195
2016-11-11 23:37:07 r, 17.89m,0000000006Hz,0000074952c,0000000.163s, 019.6C,00002195
2016-11-11 23:47:07 r, 17.91m,0000000006Hz,0000076489c,0000000.166s, 019.6C,00002195
2016-11-11 23:57:07 r, 17.92m,0000000006Hz,0000076837c,0000000.167s, 019.6C,00002195
